Location: Newark
(47.5833°N, 8.1500°E)
Time: 23:46:27
(UTC+00:00)

Vanguard 1 - Pass Details

Date: 04 November 2020
Orbit: 650 x 3833 km, 34.2° (Epoch: 29 November)

Event Time Altitude Azimuth Distance (km) Brightness Sun altitude
Rises 16:28:11 0° 280° (W) 7,969 15.9 -4.5°
Reaches altitude 10° 16:34:43 10° 272° (W) 6,918 15.8 -5.6°
Maximum altitude 16:52:11 30° 222° (SW) 4,694 14.2 -8.4°
Drops below altitude 10° 17:05:08 10° 168° (SSE) 5,077 13.7 -10.5°
Sets 17:09:03 0° 158° (SSE) 5,656 13.8 -11.2°
